Hourly Data Report for May 13, 2020

STE-ANNE-DE-BELLEVUE 1
QUEBEC
Current Station Operator: ECCC - MSC

45°25'38.000" N
73°55'45.000" W
39.00 m
702FHL8
71377
WVQ

Download Data

Hourly Data (May 2020)
Hourly Data Report for May 13, 2020
TIME
LST
Temp Definition
°C
Dew Point Definition
°C
Rel Hum Definition
%
Precip. Amount Definition
mm

Wind Dir Definition
10's deg

Wind Spd Definition
km/h
Visibility Definition
km
Stn Press Definition
kPa
Hmdx Definition


Wind Chill Definition


Weather Definition


00:00 2.3 -2.8 69 0.0 24 15   101.47     LegendNANA
01:00 1.6 -4.3 65 0.0 25 11   101.50     LegendNANA
02:00 1.3 -6.3 57 0.0 27 10   101.52     LegendNANA
03:00 2.2 -6.4 53 0.0 28 13   101.58     LegendNANA
04:00 1.7 -5.9 57 0.0 27 12   101.64     LegendNANA
05:00 1.6 -5.4 60 0.0 28 12   101.71     LegendNANA
06:00 3.1 -5.3 54 0.0 31 8   101.80     LegendNANA
07:00 5.2 -7.0 41 0.0 32 12   101.87     LegendNANA
08:00 6.4 -8.2 34 0.0 31 15   101.89     LegendNANA
09:00 7.4 -8.8 30 0.0 31 22   101.88     LegendNANA
10:00 8.6 -7.4 31 0.0 29 19   101.88     LegendNANA
11:00 9.6 -8.2 28 0.0 28 25   101.86     LegendNANA
12:00 11.5 -7.9 25 0.0 29 22   101.83     LegendNANA
13:00 12.3 -9.0 22 0.0 27 21   101.80     LegendNANA
14:00 13.2 -9.1 20 0.0 28 25   101.76     LegendNANA
15:00 14.1 -7.7 21 0.0 27 23   101.71     LegendNANA
16:00 14.5 -8.3 20 0.0 28 22   101.68     LegendNANA
17:00 14.5 -8.2 20 0.0 28 19   101.68     LegendNANA
18:00 14.1 -7.3 22 0.0 29 17   101.67     LegendNANA
19:00 12.9 -7.9 23 0.0 28 15   101.68     LegendNANA
20:00 11.6 -7.2 26 0.0 26 11   101.75     LegendNANA
21:00 10.7 -6.3 30 0.0 25 15   101.82     LegendNANA
22:00 9.2 -2.5 44 0.0 24 21   101.86     LegendNANA
23:00 7.7 -2.4 49 0.0 27 13   101.94     LegendNANA

Notes on Data Quality.

Legend

  • E = Estimated
  • M = Missing
  • NA = Not Available*
  • [empty] = Indicates an unobserved value
Date modified: